�������l�o���
Date,Time,MP-1(��Sv/h),MP-2(��Sv/h),MP-3(��Sv/h),MP-4(��Sv/h),MP-5(��Sv/h),MP-6(��Sv/h),MP-7(��Sv/h),MP-8(��Sv/h),����,����(m/s),���J
2019/05/12,00:00,0.767,1.130,0.772,1.423,1.043,0.436,0.768,0.729,�k��,2.9,��
2019/05/12,00:10,0.768,1.127,0.773,1.423,1.043,0.437,0.771,0.731,�k�k��,3.7,��
2019/05/12,00:20,0.765,1.129,0.772,1.421,1.043,0.438,0.770,0.730,�k�k��,3.7,��
2019/05/12,00:30,0.769,1.128,0.773,1.421,1.042,0.437,0.771,0.730,�k�k��,3.4,��
2019/05/12,00:40,0.766,1.128,0.775,1.423,1.043,0.437,0.769,0.730,�k�k��,3.9,��
2019/05/12,00:50,0.766,1.128,0.775,1.421,1.043,0.437,0.770,0.730,�k�k��,3.7,��
2019/05/12,01:00,0.766,1.129,0.772,1.423,1.042,0.438,0.769,0.728,�k�k��,4.2,��
2019/05/12,01:10,0.766,1.128,0.773,1.421,1.044,0.436,0.772,0.730,�k�k��,3.8,��
2019/05/12,01:20,0.766,1.129,0.773,1.423,1.042,0.437,0.769,0.730,�k�k��,3.7,��
2019/05/12,01:30,0.766,1.128,0.774,1.423,1.042,0.437,0.770,0.730,�k�k��,4.8,��
2019/05/12,01:40,0.766,1.129,0.773,1.420,1.041,0.435,0.770,0.729,�k,6.8,��
2019/05/12,01:50,0.767,1.129,0.772,1.423,1.042,0.438,0.771,0.731,�k,6.1,��
2019/05/12,02:00,0.768,1.129,0.773,1.424,1.042,0.436,0.770,0.730,�k,6.6,��
2019/05/12,02:10,0.768,1.128,0.774,1.421,1.043,0.435,0.771,0.730,�k,5.3,��
2019/05/12,02:20,0.766,1.129,0.773,1.422,1.041,0.438,0.771,0.729,�k,5.6,��
2019/05/12,02:30,0.765,1.129,0.772,1.424,1.040,0.437,0.770,0.729,�k,5.8,��
2019/05/12,02:40,0.765,1.128,0.773,1.421,1.041,0.436,0.771,0.728,�k,6.5,��
2019/05/12,02:50,0.767,1.127,0.773,1.421,1.043,0.437,0.773,0.729,�k,6.4,��
2019/05/12,03:00,0.766,1.128,0.773,1.418,1.039,0.437,0.772,0.729,�k,6.3,��
2019/05/12,03:10,0.765,1.126,0.772,1.423,1.041,0.436,0.771,0.729,�k,5.4,��
2019/05/12,03:20,0.766,1.127,0.772,1.421,1.041,0.437,0.770,0.728,�k�k��,6.2,��
2019/05/12,03:30,0.764,1.129,0.771,1.419,1.042,0.436,0.770,0.729,�k�k��,5.2,��
2019/05/12,03:40,0.765,1.129,0.774,1.423,1.041,0.437,0.772,0.730,�k�k��,5.4,��
2019/05/12,03:50,0.765,1.126,0.773,1.424,1.041,0.436,0.771,0.728,�k�k��,5.9,��
2019/05/12,04:00,0.763,1.126,0.773,1.424,1.038,0.437,0.770,0.730,�k�k��,6.0,��
2019/05/12,04:10,0.766,1.129,0.772,1.421,1.040,0.435,0.770,0.728,�k��,6.8,��
2019/05/12,04:20,0.766,1.127,0.774,1.421,1.039,0.437,0.771,0.729,�k�k��,5.6,��
2019/05/12,04:30,0.764,1.126,0.774,1.422,1.040,0.438,0.770,0.728,�k�k��,5.6,��
2019/05/12,04:40,0.765,1.126,0.774,1.419,1.041,0.436,0.770,0.730,�k�k��,5.7,��
2019/05/12,04:50,0.764,1.127,0.772,1.423,1.041,0.436,0.770,0.728,�k�k��,5.7,��
2019/05/12,05:00,0.764,1.126,0.771,1.422,1.040,0.436,0.771,0.728,�k�k��,5.8,��
2019/05/12,05:10,0.766,1.124,0.772,1.423,1.041,0.436,0.769,0.728,�k�k��,5.7,��
2019/05/12,05:20,0.766,1.126,0.772,1.421,1.042,0.436,0.771,0.730,�k�k��,5.6,��
2019/05/12,05:30,0.764,1.127,0.770,1.422,1.042,0.436,0.772,0.730,�k�k��,5.6,��
2019/05/12,05:40,0.765,1.127,0.773,1.421,1.040,0.436,0.771,0.728,�k�k��,5.4,��
2019/05/12,05:50,0.765,1.129,0.772,1.422,1.041,0.436,0.770,0.729,�k�k��,4.9,��
2019/05/12,06:00,0.767,1.129,0.772,1.420,1.041,0.436,0.771,0.729,�k�k��,4.4,��
2019/05/12,06:10,0.767,1.125,0.771,1.422,1.041,0.436,0.772,0.730,�k,4.0,��
2019/05/12,06:20,0.764,1.128,0.774,1.424,1.041,0.437,0.772,0.727,�k,3.9,��
2019/05/12,06:30,0.766,1.126,0.773,1.423,1.042,0.436,0.772,0.728,�k�k��,3.4,��
2019/05/12,06:40,0.765,1.132,0.772,1.423,1.041,0.437,0.771,0.731,�k,3.9,��
2019/05/12,06:50,0.766,1.127,0.773,1.422,1.041,0.437,0.773,0.728,�k�k��,4.6,��
2019/05/12,07:00,0.767,1.128,0.771,1.422,1.042,0.437,0.772,0.730,�k,5.7,��
2019/05/12,07:10,0.765,1.127,0.773,1.424,1.042,0.436,0.772,0.730,�k�k��,6.8,��
2019/05/12,07:20,0.767,1.126,0.772,1.422,1.042,0.435,0.771,0.729,�k�k��,5.0,��
2019/05/12,07:30,0.766,1.127,0.772,1.424,1.043,0.434,0.770,0.732,�k�k��,4.9,��
2019/05/12,07:40,0.764,1.126,0.773,1.424,1.043,0.434,0.771,0.730,�k�k��,4.7,��
2019/05/12,07:50,0.768,1.125,0.775,1.425,1.043,0.435,0.770,0.730,�k�k��,5.1,��
2019/05/12,08:00,0.768,1.127,0.774,1.424,1.044,0.435,0.771,0.730,�k�k��,4.7,��
2019/05/12,08:10,0.767,1.129,0.773,1.420,1.041,0.434,0.771,0.729,�k�k��,5.5,��
2019/05/12,08:20,0.766,1.127,0.773,1.423,1.039,0.435,0.769,0.729,�k��,5.2,��
2019/05/12,08:30,0.764,1.125,0.773,1.423,1.041,0.434,0.772,0.729,�k��,4.6,��
2019/05/12,08:40,0.767,1.126,0.774,1.421,1.040,0.436,0.770,0.729,�k�k��,4.4,��
2019/05/12,08:50,0.766,1.129,0.773,1.421,1.044,0.434,0.770,0.729,�k�k��,4.1,��
2019/05/12,09:00,0.766,1.124,0.774,1.422,1.041,0.436,0.769,0.726,�k�k��,4.6,��
2019/05/12,09:10,0.767,1.129,0.773,1.424,1.042,0.435,0.771,0.726,�k�k��,4.6,��
2019/05/12,09:20,0.765,1.127,0.774,1.424,1.042,0.436,0.771,0.727,�k�k��,5.0,��
2019/05/12,09:30,0.766,1.129,0.774,1.422,1.043,0.436,0.769,0.727,�k�k��,4.4,��
2019/05/12,09:40,0.766,1.128,0.773,1.424,1.044,0.435,0.769,0.728,�k��,4.3,��
2019/05/12,09:50,0.766,1.125,0.772,1.423,1.040,0.434,0.769,0.727,�k��,4.0,��
2019/05/12,10:00,0.768,1.128,0.775,1.420,1.040,0.434,0.769,0.728,�k��,3.9,��
2019/05/12,10:10,0.767,1.128,0.777,1.424,1.043,0.435,0.769,0.727,�k�k��,3.8,��
2019/05/12,10:20,0.768,1.129,0.773,1.424,1.043,0.435,0.770,0.726,�k�k��,4.8,��
2019/05/12,10:30,0.766,1.130,0.775,1.425,1.043,0.435,0.770,0.728,�k��,4.8,��
2019/05/12,10:40,0.768,1.129,0.774,1.424,1.045,0.435,0.769,0.726,�k��,5.1,��
2019/05/12,10:50,0.767,1.128,0.773,1.422,1.044,0.435,0.771,0.726,�k��,4.1,��
2019/05/12,11:00,0.765,1.131,0.775,1.427,1.042,0.434,0.769,0.728,�k��,5.1,��
2019/05/12,11:10,0.768,1.130,0.774,1.425,1.042,0.434,0.771,0.727,�k��,4.8,��
2019/05/12,11:20,0.767,1.131,0.774,1.425,1.042,0.435,0.768,0.728,�k��,4.4,��
2019/05/12,11:30,0.767,1.130,0.773,1.424,1.043,0.435,0.769,0.727,�k��,4.3,��
2019/05/12,11:40,0.766,1.129,0.773,1.421,1.044,0.436,0.769,0.726,�k��,3.8,��
2019/05/12,11:50,0.767,1.131,0.772,1.421,1.044,0.436,0.770,0.729,�k��,4.3,��
2019/05/12,12:00,0.765,1.131,0.775,1.423,1.045,0.436,0.769,0.729,�k��,4.0,��
2019/05/12,12:10,0.767,1.131,0.773,1.421,1.044,0.435,0.770,0.728,���k��,4.5,��
2019/05/12,12:20,0.767,1.130,0.771,1.420,1.043,0.436,0.770,0.728,�k��,4.4,��
2019/05/12,12:30,0.768,1.130,0.774,1.421,1.045,0.436,0.768,0.727,���k��,5.0,��
2019/05/12,12:40,0.767,1.130,0.774,1.421,1.045,0.436,0.770,0.727,�k��,4.6,��
2019/05/12,12:50,0.768,1.132,0.774,1.424,1.045,0.434,0.771,0.728,���k��,4.6,��
2019/05/12,13:00,0.769,1.132,0.774,1.424,1.048,0.435,0.770,0.728,�k��,3.9,��
2019/05/12,13:10,0.766,1.133,0.774,1.423,1.046,0.435,0.770,0.728,���k��,4.0,��
2019/05/12,13:20,0.769,1.130,0.774,1.428,1.046,0.436,0.770,0.727,���k��,4.5,��
2019/05/12,13:30,0.766,1.132,0.773,1.427,1.048,0.436,0.771,0.727,���k��,3.4,��
2019/05/12,13:40,0.769,1.132,0.773,1.425,1.045,0.436,0.769,0.729,���k��,4.0,��
2019/05/12,13:50,0.767,1.133,0.774,1.425,1.046,0.436,0.770,0.727,���k��,3.4,��
2019/05/12,14:00,0.767,1.134,0.772,1.426,1.046,0.435,0.770,0.728,��,3.1,��
2019/05/12,14:10,0.767,1.130,0.774,1.423,1.049,0.435,0.770,0.726,���k��,3.4,��
2019/05/12,14:20,0.769,1.132,0.772,1.424,1.047,0.436,0.770,0.728,���k��,2.8,��
2019/05/12,14:30,0.769,1.133,0.775,1.424,1.046,0.435,0.770,0.729,��,3.2,��
2019/05/12,14:40,0.768,1.132,0.775,1.423,1.048,0.436,0.770,0.727,��,3.7,��
2019/05/12,14:50,0.768,1.133,0.774,1.425,1.045,0.436,0.771,0.729,��,3.5,��
2019/05/12,15:00,0.769,1.133,0.776,1.427,1.048,0.437,0.771,0.728,��,3.8,��
2019/05/12,15:10,0.767,1.136,0.775,1.423,1.048,0.436,0.772,0.727,��,3.7,��
2019/05/12,15:20,0.768,1.133,0.775,1.423,1.049,0.437,0.772,0.728,��,3.2,��
2019/05/12,15:30,0.768,1.132,0.773,1.426,1.048,0.438,0.769,0.727,��,3.5,��
2019/05/12,15:40,0.767,1.132,0.773,1.425,1.048,0.439,0.769,0.728,��,2.6,��
2019/05/12,15:50,0.767,1.133,0.776,1.424,1.048,0.436,0.768,0.728,��,3.3,��
2019/05/12,16:00,0.770,1.132,0.776,1.425,1.047,0.437,0.769,0.726,��,3.4,��
2019/05/12,16:10,0.768,1.134,0.774,1.426,1.048,0.436,0.770,0.726,��,3.1,��
2019/05/12,16:20,0.768,1.135,0.775,1.423,1.049,0.438,0.770,0.729,��,3.0,��
2019/05/12,16:30,0.769,1.132,0.775,1.421,1.045,0.437,0.770,0.726,���k��,2.9,��
2019/05/12,16:40,0.768,1.135,0.774,1.424,1.047,0.436,0.769,0.728,��,2.3,��
2019/05/12,16:50,0.767,1.135,0.773,1.423,1.047,0.437,0.770,0.726,���k��,2.5,��
2019/05/12,17:00,0.768,1.135,0.775,1.423,1.046,0.436,0.771,0.729,���k��,2.5,��
2019/05/12,17:10,0.768,1.134,0.775,1.425,1.047,0.438,0.769,0.729,���k��,2.8,��
2019/05/12,17:20,0.766,1.138,0.774,1.424,1.046,0.437,0.770,0.730,���k��,2.3,��
2019/05/12,17:30,0.767,1.132,0.773,1.424,1.045,0.438,0.770,0.731,�k��,2.3,��
2019/05/12,17:40,0.769,1.135,0.774,1.427,1.043,0.436,0.768,0.732,���k��,2.8,��
2019/05/12,17:50,0.770,1.135,0.774,1.424,1.046,0.436,0.769,0.730,���k��,2.6,��
2019/05/12,18:00,0.770,1.136,0.774,1.426,1.049,0.436,0.769,0.731,�k��,2.5,��
2019/05/12,18:10,0.768,1.135,0.775,1.427,1.047,0.436,0.768,0.731,�k��,1.9,��
2019/05/12,18:20,0.770,1.133,0.776,1.428,1.048,0.438,0.767,0.730,�k,1.9,��
2019/05/12,18:30,0.769,1.136,0.775,1.423,1.049,0.437,0.769,0.730,�k�k��,1.5,��
2019/05/12,18:40,0.771,1.133,0.777,1.426,1.049,0.437,0.769,0.730,�k�k��,1.7,��
2019/05/12,18:50,0.770,1.134,0.775,1.427,1.047,0.437,0.769,0.730,�k,1.7,��
2019/05/12,19:00,0.768,1.135,0.774,1.426,1.047,0.436,0.768,0.729,�k,1.4,��
2019/05/12,19:10,0.770,1.134,0.776,1.426,1.046,0.437,0.769,0.729,�k,1.7,��
2019/05/12,19:20,0.770,1.135,0.776,1.427,1.048,0.437,0.771,0.729,�k�k��,1.5,��
2019/05/12,19:30,0.767,1.131,0.775,1.427,1.049,0.436,0.771,0.729,�k�k��,1.7,��
2019/05/12,19:40,0.770,1.133,0.775,1.427,1.048,0.436,0.771,0.728,�k�k��,2.0,��
2019/05/12,19:50,0.769,1.136,0.775,1.428,1.046,0.436,0.769,0.730,�k�k��,1.5,��
2019/05/12,20:00,0.770,1.132,0.775,1.429,1.048,0.437,0.771,0.730,�k,1.7,��
2019/05/12,20:10,0.769,1.133,0.776,1.429,1.047,0.437,0.772,0.728,�k�k��,2.3,��
2019/05/12,20:20,0.767,1.133,0.775,1.427,1.047,0.436,0.771,0.730,�k�k��,2.0,��
2019/05/12,20:30,0.768,1.134,0.775,1.428,1.049,0.437,0.770,0.729,�k�k��,2.8,��
2019/05/12,20:40,0.767,1.135,0.774,1.427,1.045,0.436,0.770,0.730,�k�k��,1.7,��
2019/05/12,20:50,0.769,1.130,0.775,1.427,1.047,0.436,0.770,0.728,�k�k��,2.5,��
2019/05/12,21:00,0.768,1.133,0.776,1.425,1.047,0.437,0.773,0.728,�k�k��,3.0,��
2019/05/12,21:10,0.769,1.134,0.774,1.426,1.046,0.435,0.770,0.729,�k�k��,4.3,��
2019/05/12,21:20,0.768,1.132,0.775,1.426,1.047,0.437,0.772,0.729,�k�k��,4.1,��
2019/05/12,21:30,0.767,1.133,0.776,1.426,1.045,0.437,0.770,0.730,�k�k��,3.9,��
2019/05/12,21:40,0.769,1.134,0.776,1.427,1.047,0.437,0.771,0.729,�k�k��,4.1,��
2019/05/12,21:50,0.767,1.133,0.776,1.427,1.047,0.436,0.771,0.728,�k�k��,4.0,��
2019/05/12,22:00,0.766,1.135,0.777,1.427,1.047,0.434,0.771,0.730,�k�k��,4.1,��
2019/05/12,22:10,0.767,1.133,0.775,1.429,1.045,0.435,0.770,0.728,�k�k��,3.2,��
2019/05/12,22:20,0.767,1.135,0.774,1.425,1.049,0.435,0.772,0.728,�k��,3.0,��
2019/05/12,22:30,0.766,1.130,0.775,1.427,1.046,0.436,0.770,0.730,�k�k��,2.9,��
2019/05/12,22:40,0.766,1.132,0.776,1.425,1.048,0.436,0.771,0.730,�k�k��,2.8,��
2019/05/12,22:50,0.768,1.132,0.774,1.424,1.046,0.437,0.772,0.729,�k�k��,3.0,��
2019/05/12,23:00,0.768,1.130,0.775,1.424,1.048,0.436,0.772,0.731,�k�k��,3.0,��
2019/05/12,23:10,0.767,1.134,0.774,1.426,1.046,0.437,0.770,0.729,�k�k��,2.9,��
2019/05/12,23:20,0.766,1.132,0.775,1.426,1.048,0.435,0.772,0.728,�k�k��,3.2,��
2019/05/12,23:30,0.767,1.130,0.776,1.427,1.046,0.435,0.771,0.729,�k��,3.1,��
2019/05/12,23:40,0.766,1.133,0.774,1.428,1.047,0.436,0.771,0.729,�k��,3.1,��
2019/05/12,23:50,0.770,1.134,0.774,1.427,1.048,0.436,0.771,0.728,�k�k��,2.6,��
